Newark Heath, OH

2:41 AM EDT on August 17, 2017 (GMT -0400)
Newark Heath

Weather History for KVTA - October, 2011

Change the Weather History Date:

Thursday, October 20, 2011

  Actual Average Record
Temperature  
Mean Temperature 45 °F -  
Max Temperature 48 °F 60 °F 84 °F (1953)
Min Temperature 42 °F 37 °F 22 °F (1972)
Degree Days  
Heating Degree Days 20    
Moisture  
Dew Point 41 °F    
Average Humidity 90    
Maximum Humidity 100    
Minimum Humidity 81    
Precipitation  
Precipitation 0.42 in - - ()
Sea Level Pressure  
Sea Level Pressure 29.39 in    
Wind  
Wind Speed 15 mph (SW)    
Max Wind Speed 21 mph    
Max Gust Speed 36 mph    
Visibility 6 miles    
Events Rain    
Averages and records for this station are not official NWS values.
T = Trace of Precipitation, MM = Missing Value Source: NWS Daily Summary

Daily Weather History Graph

Daily Weather History Graph

Search for Another Location

Airport or City:

Trip Planner

Search our weather history database for the weather conditions in past years. The results will help you decide how hot, cold, wet, or windy it might be!

Date:

Astronomy

Oct. 20, 2011 Rise Set
Actual Time 7:45 AM EDT 6:43 PM EDT
Civil Twilight 7:17 AM EDT 7:10 PM EDT
Nautical Twilight 6:46 AM EDT 7:42 PM EDT
Astronomical Twilight 6:14 AM EDT 8:13 PM EDT
Moon 12:29 AM EDT (10/20) 2:51 PM EDT (10/20)
Length of Visible Light 11h 52m
Length of Day
10h 58m
Last Quarter, 44% of the Moon is Illuminated
Oct 20
Last Quarter
Oct 26
New
Nov 2
First Quarter
Nov 10
Full
Nov 18
Last Quarter

Hourly Weather History & Observations

Time (EDT) Temp. Windchill Dew Point Humidity Pressure Visibility Wind Dir Wind Speed Gust Speed Precip Events Conditions
12:54 AM 48.0 °F - 44.1 °F 86% 29.25 in 10.0 mi SSW 13.8 mph 24.2 mph 0.00 in   Overcast
1:54 AM 46.9 °F - 43.0 °F 86% 29.25 in 10.0 mi SSW 12.7 mph 26.5 mph 0.00 in   Overcast
2:39 AM 46.4 °F 40.7 °F 42.8 °F 87% 29.24 in 5.0 mi SSW 12.7 mph 24.2 mph N/A   Overcast
2:52 AM 46.4 °F 40.7 °F 42.8 °F 87% 29.24 in 6.0 mi SSW 12.7 mph 21.9 mph 0.00 in Rain Light Rain
2:54 AM 46.0 °F 39.9 °F 43.0 °F 89% 29.24 in 6.0 mi SSW 13.8 mph 21.9 mph 0.00 in   Overcast
3:12 AM 46.4 °F 40.7 °F 42.8 °F 87% 29.24 in 4.0 mi SSW 12.7 mph 26.5 mph 0.00 in Rain Light Rain
3:23 AM 44.6 °F 38.1 °F 42.8 °F 93% 29.24 in 4.0 mi SSW 13.8 mph 19.6 mph 0.01 in Rain Light Rain
3:54 AM 44.1 °F 36.8 °F 42.1 °F 93% 29.24 in 3.0 mi SSW 16.1 mph 24.2 mph 0.01 in Rain Light Rain
4:31 AM 44.6 °F 38.4 °F 42.8 °F 93% 29.25 in 3.0 mi SSW 12.7 mph 23.0 mph 0.00 in Rain Light Rain
4:34 AM 44.6 °F 36.9 °F 42.8 °F 93% 29.25 in 3.0 mi SSW 18.4 mph 28.8 mph 0.00 in Rain Light Rain
4:50 AM 44.6 °F 37.8 °F 41.0 °F 87% 29.25 in 8.0 mi SSW 15.0 mph 21.9 mph 0.00 in   Overcast
4:54 AM 44.1 °F 37.7 °F 41.0 °F 89% 29.26 in 5.0 mi South 12.7 mph 21.9 mph 0.00 in   Overcast
5:08 AM 42.8 °F 35.4 °F 41.0 °F 93% 29.25 in 2.5 mi SSW 15.0 mph 25.3 mph 0.00 in Rain Light Rain
5:15 AM 42.8 °F 35.8 °F 41.0 °F 93% 29.26 in 3.0 mi SSW 13.8 mph 21.9 mph 0.01 in Rain Light Rain
5:54 AM 43.0 °F 35.7 °F 41.0 °F 93% 29.26 in 4.0 mi South 15.0 mph 23.0 mph 0.02 in Rain Light Rain
7:20 AM 42.8 °F 35.1 °F 42.8 °F 100% 29.27 in 10.0 mi SSW 16.1 mph 24.2 mph 0.01 in Rain Light Rain
7:43 AM 42.8 °F 36.2 °F 42.8 °F 100% 29.28 in 6.0 mi SSW 12.7 mph 24.2 mph 0.01 in Rain Light Rain
7:48 AM 42.8 °F 35.1 °F 42.8 °F 100% 29.28 in 4.0 mi SSW 16.1 mph 24.2 mph 0.02 in Rain Light Rain
7:54 AM 42.1 °F 36.6 °F 42.1 °F 100% 29.29 in 4.0 mi SSW 9.2 mph 21.9 mph 0.03 in Rain Light Rain
8:02 AM 42.8 °F 35.8 °F 42.8 °F 100% 29.29 in 6.0 mi SSW 13.8 mph 20.7 mph 0.00 in Rain Light Rain
8:08 AM 42.8 °F 37.5 °F 41.0 °F 93% 29.29 in 5.0 mi SSW 9.2 mph 20.7 mph 0.01 in Rain Light Rain
8:54 AM 42.1 °F 33.9 °F 39.0 °F 89% 29.32 in 4.0 mi SSW 17.3 mph 23.0 mph 0.03 in Rain Light Rain
9:01 AM 42.8 °F 34.5 °F 39.2 °F 87% 29.31 in 5.0 mi SW 18.4 mph 31.1 mph 0.00 in Rain Light Rain
9:18 AM 42.8 °F 35.1 °F 39.2 °F 87% 29.32 in 8.0 mi SW 16.1 mph 24.2 mph 0.01 in Rain Light Rain
9:25 AM 42.8 °F 35.8 °F 39.2 °F 87% 29.32 in 10.0 mi SSW 13.8 mph 24.2 mph 0.01 in Rain Light Rain
9:54 AM 42.1 °F 35.2 °F 39.0 °F 89% 29.33 in 7.0 mi SSW 12.7 mph 19.6 mph 0.03 in Rain Light Rain
10:27 AM 42.8 °F 36.6 °F 39.2 °F 87% 29.34 in 6.0 mi SSW 11.5 mph 21.9 mph 0.01 in Rain Light Rain
10:54 AM 43.0 °F 36.8 °F 41.0 °F 93% 29.36 in 9.0 mi SSW 11.5 mph - 0.02 in Rain Light Rain
11:20 AM 44.6 °F 37.8 °F 41.0 °F 87% 29.36 in 10.0 mi SW 15.0 mph 25.3 mph 0.01 in Rain Light Rain
11:54 AM 45.0 °F 37.9 °F 42.1 °F 90% 29.38 in 10.0 mi SW 16.1 mph 24.2 mph 0.02 in Rain Light Rain
12:20 PM 44.6 °F 36.6 °F 41.0 °F 87% 29.38 in 6.0 mi SW 19.6 mph 32.2 mph 0.01 in Rain Light Rain
12:37 PM 44.6 °F 36.9 °F 42.8 °F 93% 29.39 in 5.0 mi SW 18.4 mph 28.8 mph 0.03 in Rain Light Rain
12:44 PM 44.6 °F 36.9 °F 41.0 °F 87% 29.39 in 3.0 mi SW 18.4 mph 26.5 mph 0.04 in Rain Light Rain
12:54 PM 44.1 °F 37.1 °F 41.0 °F 89% 29.40 in 3.0 mi SW 15.0 mph 29.9 mph 0.05 in Rain Light Rain
1:38 PM 42.8 °F 34.3 °F 39.2 °F 87% 29.41 in 2.5 mi SW 19.6 mph 31.1 mph 0.03 in Rain Light Rain
1:54 PM 43.0 °F 34.2 °F 39.9 °F 89% 29.43 in 2.5 mi SW 20.7 mph 35.7 mph 0.04 in Rain Light Rain
2:09 PM 42.8 °F 34.3 °F 41.0 °F 93% 29.44 in 3.0 mi SW 19.6 mph 33.4 mph 0.00 in Rain Light Rain
2:54 PM 43.0 °F 35.4 °F 39.9 °F 89% 29.47 in 5.0 mi SW 16.1 mph 31.1 mph 0.02 in Rain Light Rain
3:46 PM 44.6 °F 36.4 °F 39.2 °F 81% 29.51 in 7.0 mi WSW 20.7 mph 29.9 mph 0.05 in Rain Light Rain
3:54 PM 44.1 °F 35.9 °F 39.9 °F 85% 29.52 in 8.0 mi WSW 19.6 mph 28.8 mph 0.06 in Rain Light Rain
4:54 PM 44.1 °F 37.1 °F 41.0 °F 89% 29.56 in 5.0 mi SW 15.0 mph 26.5 mph 0.03 in Rain Light Rain
5:32 PM 42.8 °F 35.1 °F 41.0 °F 93% 29.58 in 2.5 mi WSW 16.1 mph 27.6 mph 0.02 in Rain Light Rain
5:54 PM 43.0 °F 35.4 °F 41.0 °F 93% 29.60 in 3.0 mi WSW 16.1 mph 29.9 mph 0.03 in Rain Light Rain
6:54 PM 44.1 °F 36.5 °F 41.0 °F 89% 29.65 in 10.0 mi WSW 17.3 mph 29.9 mph 0.00 in Rain Light Rain
7:54 PM 44.1 °F 36.8 °F 39.9 °F 85% 29.71 in 10.0 mi WSW 16.1 mph 26.5 mph 0.02 in Rain Light Rain
8:54 PM 43.0 °F 35.1 °F 39.9 °F 89% 29.75 in 10.0 mi WSW 17.3 mph 29.9 mph 0.01 in Rain Light Rain
9:54 PM 43.0 °F 35.7 °F 39.9 °F 89% 29.78 in 10.0 mi WSW 15.0 mph 24.2 mph 0.00 in Rain Light Rain
10:54 PM 43.0 °F 36.0 °F 39.9 °F 89% 29.81 in 10.0 mi WSW 13.8 mph 21.9 mph 0.00 in   Overcast
11:54 PM 43.0 °F 36.0 °F 39.0 °F 86% 29.83 in 10.0 mi West 13.8 mph 20.7 mph N/A   Overcast